User: anonymous   Login
Location: Gairloch Mountain Observatory
(46.1383°N, 60.9640°W)
Time: 22:38:53
(UTC-04:00)
Language:

CENTAUR R/B - Orbit

View from above orbital plane
View from above orbital plane
View from above satellite
View from above satellite

Ground track
Ground track

The orbit data is extracted from the following two-line orbital elements,

1 26906U 01040B   14325.67988323 0.00000160  00000-0  22197-3 0    03
2 26906  63.4635 217.4633 0270000 344.9253  15.0747 13.43930025    01
Epoch (UTC): 21 November 2014 16:19:01
Eccentricity: 0.0270000
inclination: 63.4635°
perigee height: 893 km
apogee height: 1296 km
right ascension of ascending node: 217.4633°
argument of perigee: 344.9253°
revolutions per day: 13.43930025
mean anomaly at epoch: 15.0747°
orbit number at epoch: 0

The dashed part of the orbit path shows where the satellite is in the earth's shadow,  

DLR